Location: ??????
(30.0081°N, 31.2109°E)
Time: 07:16:33
(UTC+00:00)

Meteor 1-11 Rocket - Pass Details

Date: 03 March 2021
Orbit: 831 x 916 km, 81.2° (Epoch: 15 April)

Event Time Altitude Azimuth Distance (km) Brightness Sun altitude
Rises 17:36:08 0° 185° (S) 3,488 6.9 -22.5°
Reaches altitude 10° 17:38:36 10° 184° (S) 2,540 6.2 -23.1°
Maximum altitude 17:44:23 86° 97° (E) 878 3.6 -24.3°
Drops below altitude 10° 17:50:04 10° 9° (N) 2,495 6.1 -25.5°
Sets 17:52:28 0° 9° (N) 3,422 6.9 -26.0°
